Temperature
20 19 20 19 19 19 19 19 19 19 19 19 19 19 19 19 19 19 19 18 18 18 18 18 18 18 18 18 18 18 18 18 18 18 18 18 17 17 17 17 17 17 17
20 19 20 19 19 19 19 19 19 20 19 19 19 19 19 19 19 19 18 18 18 18 18 18 18 18 18 18 18 18 18 18 18 18 18 17 17 17 17 17 17 17 17
20 19 20 19 19 19 19 19 19 19 19 19 19 19 19 19 19 18 18 18 18 18 18 18 18 18 18 18 18 18 18 18 18 18 17 17 17 17 17 17 17 17 17
20 19 19 19 19 19 19 19 19 19 19 19 19 19 19 19 19 18 18 18 18 18 18 18 18 18 18 18 18 18 18 18 18 17 17 17 16 17 17 17 17 17 17
20 19 19 20 19 19 19 19 19 19 19 19 19 19 19 19 18 18 18 18 18 18 18 18 18 18 18 18 18 18 18 18 17 17 17 17 17 17 17 17 17 17 17
20 19 19 20 19 19 19 19 19 19 19 19 19 19 19 19 18 18 18 18 18 18 18 18 18 18 18 18 18 18 18 18 17 17 16 16 17 17 17 17 17 17 17
20 19 19 19 19 19 19 19 19 19 19 19 19 19 19 18 18 18 18 18 18 18 18 18 18 18 18 18 18 18 18 17 17 17 17 16 17 17 17 17 17 17 17
20 19 18 19 19 19 19 19 19 19 19 19 19 19 18 18 18 18 18 18 18 18 18 18 18 18 18 18 18 18 18 17 17 17 17 17 17 17 17 17 17 17 17
20 19 18 18 19 19 19 19 19 19 19 19 19 18 18 18 18 18 18 18 18 18 18 18 18 18 18 18 18 18 18 17 18 17 17 16 17 17 17 17 17 17 17
19 19 18 18 18 18 19 19 19 19 19 18 18 18 18 18 18 18 18 18 18 18 18 18 18 18 18 18 18 18 18 18 18 17 17 17 17 17 17 17 17 17 17
19 19 19 18 18 18 18 18 18 19 19 18 18 18 18 17 17 17 17 18 18 18 18 18 18 18 18 18 18 18 18 18 18 17 17 17 17 17 17 17 17 17 17
18 18 18 18 18 18 18 18 18 18 18 18 17 18 17 17 17 17 17 18 18 18 18 18 18 17 17 17 18 18 18 18 18 17 17 17 17 17 17 17 17 17 16
18 18 18 18 18 18 18 18 18 18 18 17 17 17 17 17 17 17 17 17 17 17 17 17 17 17 17 17 17 17 18 18 18 17 17 17 17 17 17 17 17 16 16
18 18 18 18 17 17 18 18 18 18 17 17 18 17 17 17 17 17 17 17 17 17 17 17 17 17 17 17 17 17 17 18 17 17 17 17 17 17 17 17 17 16 16
18 18 18 17 17 17 17 17 17 17 17 17 17 18 17 17 17 17 17 17 17 17 17 17 17 17 17 17 17 17 17 17 17 17 17 17 17 17 17 17 17 17 16
18 18 17 17 17 17 17 17 17 17 17 17 17 17 17 17 17 17 17 17 17 17 17 17 17 17 17 17 17 17 17 17 17 17 17 17 17 17 17 17 17 16 16
18 18 17 17 17 17 17 17 17 17 17 17 17 17 17 17 17 17 17 17 17 17 17 17 17 16 17 17 17 17 17 17 17 16 16 16 16 17 17 17 16 16 16
17 17 17 17 17 17 17 17 17 17 17 17 17 17 17 17 17 17 17 17 17 17 17 17 16 17 17 17 17 17 17 17 17 16 17 16 16 16 16 16 16 16 16
18 18 17 17 17 17 17 17 17 17 17 17 17 17 17 17 17 17 17 17 17 17 17 17 16 16 16 17 17 17 17 17 17 17 16 16 16 16 16 16 16 16 16
17 17 17 17 17 17 17 17 17 17 17 17 17 17 17 17 17 17 17 17 16 16 16 16 16 16 16 16 17 17 17 17 17 17 17 17 16 16 16 16 16 16 16
17 17 17 17 17 17 17 17 17 17 17 17 17 17 17 17 17 17 16 17 16 16 16 16 16 16 16 16 17 17 17 17 16 16 17 17 16 16 16 16 16 16 16
17 17 17 17 17 17 17 17 17 17 17 17 17 17 17 17 17 16 16 16 16 16 16 16 16 16 16 16 17 17 18 17 16 17 16 16 16 16 16 16 16 16 16
17 17 17 17 17 17 17 17 16 16 17 16 16 16 16 16 16 16 16 16 16 16 16 16 16 16 16 16 16 17 18 18 18 17 16 16 16 16 16 16 16 15 15
17 17 17 17 17 17 17 17 17 17 16 17 17 16 16 16 16 16 16 16 16 16 16 16 16 16 16 16 16 16 17 17 18 18 17 16 16 16 16 16 16 15 15
17 17 17 17 17 17 17 17 17 16 16 16 16 16 16 16 16 16 16 16 16 16 16 16 15 16 16 16 16 16 16 16 17 18 18 17 16 16 16 15 15 15 15
17 17 17 17 17 17 17 17 17 16 16 16 16 16 16 16 16 16 16 16 16 16 15 15 15 15 16 16 16 16 16 17 17 18 18 17 17 16 15 15 15 15 15
Wind_Speed
15 18 20 17 17 17 18 18 18 17 17 16 16 15 15 14 14 14 14 14 14 14 14 14 14 15 15 15 15 16 16 16 16 16 17 17 16 16 16 16 15 17 18
18 21 21 18 18 18 18 18 17 17 17 16 16 15 15 14 14 14 13 14 14 14 14 14 15 15 16 16 16 16 15 15 16 16 17 16 15 15 13 12 14 17 17
20 22 22 19 18 18 18 18 17 17 17 16 16 15 15 14 14 13 14 14 14 14 14 14 15 15 16 16 15 15 15 15 15 14 13 15 15 14 14 16 17 17 16
21 21 21 21 19 18 18 18 17 17 16 16 15 15 14 14 14 14 14 14 14 14 14 14 15 15 15 15 15 14 14 14 12 10 10 13 14 14 15 15 15 15 15
20 21 22 22 20 19 18 17 17 17 16 15 15 14 14 14 14 14 14 14 14 14 14 14 14 14 14 14 14 14 14 12 7 6 11 12 14 14 14 14 14 14 14
20 21 23 21 20 19 18 17 17 16 16 15 15 14 14 14 14 14 14 14 14 14 14 14 13 13 13 13 13 13 12 9 7 10 10 11 13 13 13 13 13 13 14
20 20 23 21 20 19 18 17 17 16 15 15 15 14 14 13 13 14 13 13 13 13 13 13 13 12 12 12 12 12 9 4 7 10 9 11 13 13 13 13 13 13 13
19 19 22 21 19 19 18 17 16 16 15 14 14 14 14 14 13 13 13 13 13 13 12 12 11 11 10 10 11 10 7 3 9 9 10 12 13 12 12 12 12 12 12
17 18 19 20 19 18 17 16 16 15 15 14 14 14 13 13 13 13 13 13 12 12 11 10 10 10 10 10 10 9 6 1 6 8 9 11 12 11 11 11 11 11 11
16 16 17 18 18 18 17 16 15 15 14 14 13 13 13 13 13 12 13 12 11 11 10 10 9 9 10 10 10 9 7 5 7 8 8 12 11 10 10 10 10 10 10
16 15 16 16 16 16 16 17 16 15 14 14 13 13 12 12 12 11 12 12 11 10 9 9 8 8 9 11 9 8 7 4 7 6 9 13 10 9 9 9 9 9 9
18 16 15 16 15 15 14 15 14 13 14 12 12 12 9 8 7 9 13 10 10 10 9 8 7 7 7 9 10 8 5 5 6 6 10 11 9 8 8 9 8 8 8
18 16 15 14 13 13 11 12 10 10 11 11 11 10 8 8 8 8 9 10 9 9 8 8 6 4 3 4 4 4 4 4 4 6 11 10 8 7 7 7 8 7 7
17 16 15 14 13 11 11 10 10 9 9 9 10 10 9 6 6 6 5 7 7 6 5 4 3 4 4 4 3 3 4 2 4 5 10 9 7 7 7 6 7 6 6
17 17 15 15 14 12 10 8 9 8 9 9 9 9 8 7 6 6 5 5 5 6 6 4 3 4 3 3 3 3 3 3 3 3 8 8 6 6 6 6 6 6 6
18 17 16 16 15 13 10 8 8 8 8 9 9 9 9 7 6 6 6 5 5 4 4 4 4 3 3 3 3 3 2 3 4 3 5 8 8 6 5 5 6 6 7
17 17 17 15 15 14 12 10 8 9 9 8 8 9 9 7 7 6 6 6 5 5 5 4 4 4 3 3 3 3 3 2 3 3 3 4 7 9 7 6 5 7 7
16 17 16 15 15 14 11 10 8 9 9 8 8 9 9 8 8 6 5 5 6 5 5 4 4 3 3 2 2 2 2 3 3 3 4 3 2 5 8 7 6 6 7
16 16 16 15 15 14 12 10 9 8 8 8 8 8 9 8 8 7 5 5 7 5 4 4 4 3 3 2 3 3 2 2 2 2 3 3 3 2 4 8 7 5 6
15 15 15 15 14 14 12 9 7 8 7 8 8 7 9 8 8 7 6 6 7 5 5 4 4 2 2 3 2 2 2 3 2 2 3 4 4 4 3 3 6 7 6
15 16 16 16 15 13 11 11 10 9 8 8 8 9 8 8 9 8 6 7 6 6 5 6 5 5 4 3 3 4 3 3 3 2 2 2 3 3 2 3 3 3 6
16 16 16 16 15 15 12 10 9 8 7 7 7 8 9 9 9 9 7 6 6 5 6 6 5 4 3 4 4 4 4 4 4 3 3 3 2 3 3 4 3 3 2
16 17 15 16 15 15 14 10 9 7 7 8 9 8 9 9 9 7 8 7 6 6 6 6 6 6 4 5 3 3 3 2 4 3 2 2 2 2 3 4 4 4 3
16 15 15 15 15 14 14 12 13 11 11 10 9 8 8 9 9 9 9 8 7 6 5 6 5 5 5 5 4 2 2 2 2 3 4 4 3 3 2 2 3 4 3
15 14 14 15 14 14 14 14 13 12 10 9 9 9 9 8 9 9 9 8 7 6 5 5 5 5 5 5 4 4 3 2 4 3 3 4 4 4 3 3 2 3 3
14 14 14 15 14 14 14 14 14 14 12 12 11 11 9 8 8 9 9 8 7 6 6 6 6 6 4 3 4 4 4 4 4 4 3 4 4 3 3 2 3 3 3
Wind_Direction
155 147 145 148 145 141 138 136 134 132 130 127 124 122 119 115 111 108 106 104 103 102 100 101 103 104 105 105 106 108 109 110 111 112 112 111 111 112 115 120 119 108 110
151 146 147 149 146 143 140 137 135 133 130 128 125 123 120 116 112 108 106 104 103 102 101 101 102 103 104 105 108 109 110 112 114 115 116 113 110 111 112 105 97 109 114
148 146 151 149 146 143 140 137 136 134 132 129 125 123 120 117 114 111 107 104 103 102 101 101 102 103 104 106 107 108 110 113 116 126 136 118 112 109 106 103 106 114 114
148 149 153 149 148 144 141 139 137 135 132 129 127 124 121 118 116 112 109 106 104 103 103 102 102 103 105 107 108 108 108 111 123 151 127 112 113 109 109 111 113 115 115
150 151 148 152 150 146 143 140 138 135 133 132 130 127 124 121 117 113 111 108 107 105 104 103 104 104 105 108 109 108 109 115 142 138 103 106 107 110 110 112 113 114 114
153 153 148 154 151 148 146 143 140 137 135 134 132 129 126 121 118 114 112 110 109 107 105 104 106 107 107 109 111 112 115 137 165 104 109 109 110 113 113 115 115 116 115
156 153 150 155 153 151 148 146 143 141 139 137 134 130 128 123 120 116 114 112 110 109 107 107 107 109 110 110 113 115 120 162 111 107 109 103 107 115 115 114 115 117 116
157 154 150 155 155 152 151 148 146 143 141 138 134 131 128 125 120 118 116 115 112 111 109 107 107 108 111 113 114 117 132 194 116 110 107 105 108 115 116 116 117 118 119
158 154 154 159 158 155 153 150 147 145 142 139 136 132 128 126 124 121 119 117 114 111 109 106 105 107 113 118 120 120 126 267 112 109 109 106 114 118 118 119 120 120 121
162 159 160 163 161 161 158 153 150 148 145 142 140 138 133 130 129 129 129 120 118 114 111 107 106 107 114 122 123 126 143 199 116 116 109 111 122 125 122 122 125 125 124
168 165 167 164 165 166 161 156 156 153 150 150 147 145 153 150 141 146 119 123 124 119 114 109 109 115 128 133 128 142 176 148 113 105 100 112 131 132 130 129 128 130 129
173 172 172 167 168 168 163 160 166 163 159 164 152 156 159 139 139 130 121 127 128 126 124 115 121 152 184 142 143 178 160 124 120 117 107 123 135 138 137 137 137 137 136
175 173 173 168 171 169 164 165 168 163 160 164 157 159 152 150 148 143 143 145 145 151 143 138 167 150 126 106 137 146 110 121 117 115 118 133 141 144 144 146 147 147 147
176 175 173 168 171 173 169 166 168 165 165 164 158 169 162 162 157 148 152 147 154 148 140 145 135 117 107 117 121 117 131 128 113 107 121 140 149 153 154 156 156 158 163
178 176 172 171 171 171 169 173 172 168 167 160 163 171 169 166 165 153 149 154 156 147 154 149 144 133 136 134 130 128 131 105 111 124 125 145 161 165 162 161 167 173 175
182 178 173 175 172 172 172 173 169 169 166 165 167 168 178 171 162 163 162 162 156 157 145 154 148 151 156 128 131 127 143 129 125 146 133 149 166 175 176 175 179 185 186
183 177 174 177 175 176 176 176 172 171 172 173 168 170 178 176 166 172 168 170 160 152 145 160 148 156 168 156 139 132 141 135 129 143 147 151 164 175 181 185 190 195 197
183 178 176 179 179 179 178 180 177 177 175 176 172 172 178 178 174 180 177 170 163 167 164 159 173 169 163 165 153 152 142 152 156 170 167 160 165 171 169 176 195 201 205
181 177 175 179 180 180 179 180 181 177 181 178 177 174 176 180 182 189 181 163 173 176 179 185 164 186 175 183 176 170 179 167 167 176 164 163 163 188 174 160 180 197 205
180 177 176 180 182 179 177 178 180 181 185 182 179 179 182 184 188 191 182 173 184 182 183 182 159 180 195 205 208 167 181 166 178 157 187 166 175 188 186 162 175 175 180
180 180 181 183 183 179 177 180 182 184 185 182 180 180 185 190 190 192 187 174 192 186 186 183 184 180 197 196 196 182 174 170 167 173 192 198 177 177 164 172 193 179 172
182 184 183 184 184 184 183 182 182 177 182 181 178 177 187 190 191 192 190 185 189 180 183 185 198 208 188 201 220 201 189 174 182 172 176 187 184 175 172 169 158 183 228
184 185 184 182 184 186 182 177 174 170 178 182 183 182 185 185 189 194 188 191 184 191 183 191 194 209 201 192 223 236 231 198 161 159 175 179 181 182 182 163 160 155 177
186 184 182 180 183 184 181 181 181 186 188 185 180 178 178 185 186 187 187 185 189 191 176 194 195 204 208 200 188 235 307 358 246 179 181 174 172 184 178 182 159 159 165
182 183 183 180 181 183 185 186 188 190 188 176 173 168 178 180 185 186 183 180 185 191 187 195 184 210 206 212 202 196 197 204 247 252 199 181 182 176 178 189 190 179 164
178 179 179 179 182 184 186 189 190 186 180 174 175 173 180 178 182 185 183 181 187 184 181 189 193 196 213 208 224 215 215 220 227 233 229 215 200 177 187 199 210 196 199
Height
1513 1515 1516 1519 1522 1524 1527 1528 1530 1531 1533 1534 1535 1536 1537 1538 1539 1540 1541 1541 1542 1543 1544 1545 1546 1547 1548 1548 1549 1550 1551 1552 1553 1554 1555 1556 1557 1558 1559 1560 1561 1562 1562
1512 1515 1516 1520 1523 1526 1528 1530 1532 1533 1535 1536 1537 1538 1539 1540 1541 1542 1543 1544 1545 1546 1547 1548 1548 1549 1550 1551 1552 1553 1554 1555 1556 1557 1558 1559 1559 1561 1561 1562 1563 1564 1565
1512 1515 1517 1521 1524 1527 1530 1532 1534 1535 1537 1538 1539 1540 1541 1542 1543 1544 1545 1546 1547 1548 1549 1550 1551 1552 1553 1554 1554 1555 1556 1557 1558 1559 1561 1563 1562 1563 1564 1565 1565 1566 1567
1513 1516 1519 1522 1525 1528 1531 1533 1535 1537 1539 1540 1541 1542 1543 1545 1546 1547 1548 1549 1550 1551 1552 1553 1553 1554 1555 1556 1557 1558 1559 1560 1561 1562 1565 1566 1565 1565 1566 1567 1568 1569 1570
1514 1518 1519 1523 1526 1529 1532 1535 1537 1539 1540 1542 1543 1544 1545 1547 1548 1549 1550 1551 1552 1553 1554 1555 1556 1557 1558 1559 1560 1561 1562 1562 1564 1566 1567 1568 1567 1568 1568 1569 1570 1571 1572
1515 1519 1520 1524 1527 1531 1533 1536 1538 1540 1542 1543 1545 1546 1547 1549 1550 1551 1552 1553 1554 1555 1557 1557 1559 1560 1561 1562 1562 1563 1564 1565 1567 1569 1569 1570 1570 1570 1571 1572 1572 1573 1574
1516 1520 1521 1525 1528 1532 1535 1537 1540 1541 1543 1545 1547 1548 1549 1551 1552 1553 1554 1556 1557 1558 1559 1560 1561 1562 1563 1564 1565 1566 1567 1567 1571 1571 1571 1572 1571 1572 1573 1574 1574 1575 1576
1518 1521 1522 1526 1529 1533 1536 1538 1541 1543 1545 1547 1548 1550 1551 1553 1554 1555 1556 1558 1559 1560 1561 1563 1564 1565 1566 1567 1567 1568 1569 1570 1573 1574 1574 1574 1573 1574 1575 1576 1577 1578 1579
1519 1522 1524 1527 1530 1533 1536 1539 1542 1544 1546 1548 1550 1551 1553 1554 1556 1557 1558 1560 1561 1562 1564 1565 1566 1567 1568 1569 1570 1570 1571 1572 1576 1576 1576 1576 1575 1576 1577 1578 1579 1580 1581
1519 1522 1525 1528 1531 1534 1537 1540 1543 1545 1547 1549 1551 1553 1554 1556 1557 1559 1560 1561 1563 1564 1566 1567 1568 1569 1570 1571 1572 1572 1573 1574 1578 1578 1578 1577 1577 1578 1579 1580 1581 1582 1583
1518 1521 1525 1528 1531 1535 1538 1540 1543 1546 1548 1550 1552 1554 1556 1559 1560 1561 1562 1563 1564 1566 1567 1569 1570 1571 1572 1573 1573 1574 1575 1578 1579 1580 1579 1578 1579 1580 1581 1581 1582 1583 1584
1516 1520 1524 1527 1531 1535 1539 1540 1544 1547 1549 1552 1553 1555 1558 1559 1561 1563 1562 1564 1566 1567 1569 1570 1572 1573 1574 1576 1575 1576 1579 1580 1580 1581 1580 1579 1580 1581 1582 1583 1584 1584 1585
1513 1518 1522 1526 1530 1535 1538 1541 1544 1547 1548 1552 1554 1555 1558 1560 1562 1564 1565 1566 1567 1569 1571 1571 1573 1576 1577 1577 1578 1579 1580 1581 1582 1582 1581 1581 1581 1582 1583 1584 1585 1586 1587
1512 1516 1520 1524 1528 1533 1537 1540 1543 1546 1548 1551 1553 1556 1558 1560 1562 1564 1565 1567 1568 1570 1571 1573 1574 1575 1576 1577 1578 1579 1580 1582 1582 1583 1581 1581 1582 1583 1584 1585 1586 1586 1587
1510 1514 1518 1522 1526 1530 1535 1538 1542 1545 1548 1551 1553 1555 1558 1560 1562 1564 1565 1567 1569 1570 1572 1573 1574 1575 1576 1577 1579 1580 1581 1581 1582 1583 1582 1582 1583 1584 1584 1585 1586 1587 1588
1508 1512 1516 1520 1525 1529 1533 1537 1540 1544 1547 1551 1553 1555 1557 1560 1562 1563 1565 1566 1569 1570 1572 1573 1574 1575 1577 1578 1579 1579 1581 1582 1582 1583 1584 1583 1583 1584 1585 1585 1586 1587 1588
1506 1510 1514 1518 1523 1527 1531 1535 1539 1543 1546 1549 1552 1554 1556 1559 1561 1563 1565 1566 1568 1569 1570 1572 1574 1575 1577 1578 1579 1579 1580 1581 1582 1582 1583 1584 1584 1584 1584 1585 1586 1587 1587
1504 1508 1512 1516 1521 1525 1530 1534 1538 1542 1545 1548 1551 1554 1556 1558 1560 1562 1564 1566 1567 1569 1570 1572 1574 1576 1577 1578 1579 1580 1580 1580 1581 1582 1583 1584 1584 1585 1584 1585 1586 1586 1587
1501 1505 1510 1515 1519 1523 1528 1532 1536 1540 1543 1547 1550 1552 1555 1557 1559 1562 1563 1565 1566 1568 1570 1572 1573 1575 1576 1577 1578 1579 1580 1580 1581 1582 1583 1583 1584 1584 1585 1584 1585 1586 1586
1499 1503 1508 1512 1517 1521 1525 1530 1534 1538 1541 1545 1548 1550 1553 1556 1558 1560 1562 1563 1565 1567 1569 1570 1571 1573 1575 1576 1578 1579 1579 1580 1580 1581 1582 1583 1583 1584 1585 1585 1585 1585 1585
1497 1501 1505 1509 1514 1518 1522 1526 1531 1535 1539 1543 1546 1549 1552 1554 1557 1559 1561 1562 1564 1566 1567 1569 1571 1572 1574 1575 1577 1578 1579 1579 1580 1580 1581 1582 1583 1584 1584 1584 1585 1585 1585
1494 1497 1502 1506 1511 1515 1519 1524 1528 1533 1537 1540 1544 1547 1549 1552 1555 1557 1559 1561 1563 1564 1566 1568 1569 1572 1573 1574 1576 1577 1578 1580 1579 1580 1580 1581 1582 1583 1583 1583 1583 1583 1584
1491 1495 1499 1503 1508 1512 1517 1522 1526 1530 1534 1538 1541 1544 1547 1550 1553 1555 1557 1560 1561 1563 1565 1566 1568 1570 1572 1573 1574 1576 1577 1576 1578 1579 1579 1580 1581 1581 1582 1582 1582 1582 1583
1489 1493 1497 1501 1505 1510 1514 1518 1523 1527 1531 1534 1538 1541 1545 1548 1551 1553 1555 1557 1559 1562 1563 1565 1566 1568 1569 1572 1573 1574 1575 1576 1577 1578 1579 1579 1579 1580 1581 1582 1582 1582 1582
1487 1490 1494 1498 1503 1507 1512 1516 1520 1524 1528 1532 1536 1539 1543 1546 1548 1551 1553 1555 1557 1560 1561 1563 1564 1566 1568 1570 1572 1573 1574 1575 1576 1577 1577 1579 1579 1579 1580 1580 1581 1581 1581
1484 1488 1491 1495 1500 1504 1509 1513 1517 1521 1525 1529 1533 1536 1540 1543 1546 1549 1551 1553 1556 1558 1559 1561 1563 1565 1567 1568 1570 1572 1573 1574 1575 1576 1576 1577 1578 1578 1578 1579 1579 1580 1580